This is the latest recevied weather packets stored in our database for station/object YO6IKB-10. If no packets are shown the sender has not sent any weather packets the latest 1 day(s).
| Time | Temp. | Humidity | Pressure | Rain* | Wind** | Luminosity | Snow |
|---|---|---|---|---|---|---|---|
| 1778118303 | 11.11° C | 71% | 1011.3 hPa | 0 mm | - | - | - |
| 1778117702 | 11.67° C | 72% | 1011.3 hPa | 0 mm | - | - | - |
| 1778116501 | 11.67° C | 73% | 1011.3 hPa | 0 mm | - | - | - |
| 1778116201 | 11.67° C | 72% | 1011.3 hPa | 0 mm | - | - | - |
| 1778115600 | 11.67° C | 72% | 1011.3 hPa | 0 mm | - | - | - |
| 1778115300 | 11.67° C | 71% | 1011.3 hPa | 0 mm | - | - | - |
| 1778114699 | 11.67° C | 71% | 1011.2 hPa | 0 mm | - | - | - |
| 1778114399 | 11.67° C | 71% | 1011.2 hPa | 0 mm | - | - | - |
| 1778113498 | 12.22° C | 71% | 1011.1 hPa | 0 mm | - | - | - |
| 1778113198 | 12.22° C | 70% | 1011.1 hPa | 0 mm | - | - | - |
| 1778112297 | 12.22° C | 71% | 1011 hPa | 0 mm | - | - | - |
| 1778111096 | 12.22° C | 70% | 1011 hPa | 0 mm | - | - | - |
| 1778110195 | 12.78° C | 69% | 1010.9 hPa | 0 mm | - | - | - |
| 1778109294 | 12.78° C | 68% | 1010.9 hPa | 0 mm | - | - | - |
| 1778108994 | 12.78° C | 67% | 1010.9 hPa | 0 mm | - | - | - |
| 1778108093 | 12.78° C | 66% | 1010.9 hPa | 0 mm | - | - | - |
| 1778107192 | 13.33° C | 66% | 1010.7 hPa | 0 mm | - | - | - |
| 1778106291 | 13.89° C | 63% | 1010.7 hPa | 0 mm | - | - | - |
| 1778105090 | 14.44° C | 63% | 1010.5 hPa | 0 mm | - | - | - |
| 1778103889 | 15° C | 61% | 1010.3 hPa | 0 mm | - | - | - |
| 1778102988 | 15.56° C | 60% | 1010.3 hPa | 0 mm | - | - | - |
| 1778102087 | 16.11° C | 59% | 1010.2 hPa | 0 mm | - | - | - |
| 1778100886 | 16.67° C | 56% | 1010 hPa | 0 mm | - | - | - |
| 1778099985 | 17.22° C | 56% | 1009.9 hPa | 0 mm | - | - | - |
| 1778098784 | 17.22° C | 56% | 1009.5 hPa | 0 mm | - | - | - |
* Rain latest hour (hover to see other rain measurements)
** Current wind speed in m/s (hover to see current wind gust speed)